| time (UTC) | temp F | wind direction | speed MPH | gust MPH | rain 1hr in | rain 24hr in | rain mn in | humidity % | barometer mb |
| 20260831005940 | 74 | 33 | 3.0 | 6.0 | 0.00 | 0.00 | 0.00 | 43 | 1014.7 |
| 20260831005510 | 75 | 62 | 1.0 | 6.0 | 0.00 | 0.00 | 0.00 | 43 | 1015.0 |
| 20260831005010 | 75 | 42 | 4.0 | 6.0 | 0.00 | 0.00 | 0.00 | 42 | 1015.0 |
| 20260831004440 | 75 | 275 | 0.0 | 3.0 | 0.00 | 0.00 | 0.00 | 43 | 1015.0 |
| 20260831004010 | 75 | 17 | 1.0 | 6.0 | 0.00 | 0.00 | 0.00 | 44 | 1015.1 |
| 20260831003440 | 75 | 53 | 1.0 | 6.0 | 0.00 | 0.00 | 0.00 | 42 | 1015.1 |
| 20260831003009 | 75 | 49 | 3.0 | 7.0 | 0.00 | 0.00 | 0.00 | 42 | 1015.1 |
| 20260831002440 | 75 | 120 | 2.0 | 7.0 | 0.00 | 0.00 | 0.00 | 42 | 1015.2 |
| 20260831001939 | 75 | 122 | 1.0 | 6.0 | 0.00 | 0.00 | 0.00 | 42 | 1015.2 |
| 20260831001510 | 75 | 26 | 4.0 | 6.0 | 0.00 | 0.00 | 0.00 | 41 | 1015.2 |
| 20260831001009 | 76 | 61 | 1.0 | 6.0 | 0.00 | 0.00 | 0.00 | 41 | 1015.5 |
| 20260831000509 | 76 | 321 | 1.0 | 5.0 | 0.00 | 0.00 | 0.00 | 41 | 1015.5 |
| 20260830235509 | 76 | 28 | 0.0 | 5.0 | 0.00 | 0.00 | 0.00 | 40 | 1015.6 |
| 20260830235010 | 77 | 174 | 1.0 | 6.0 | 0.00 | 0.00 | 0.00 | 40 | 1015.6 |
| 20260830234509 | 77 | 227 | 1.0 | 6.0 | 0.00 | 0.00 | 0.00 | 39 | 1015.6 |
| 20260830234010 | 77 | 31 | 2.0 | 7.0 | 0.00 | 0.00 | 0.00 | 40 | 1015.8 |
| 20260830232509 | 76 | 73 | 1.0 | 6.0 | 0.00 | 0.00 | 0.00 | 41 | 1016.1 |
| 20260830231940 | 76 | 82 | 3.0 | 5.0 | 0.00 | 0.00 | 0.00 | 40 | 1016.1 |
| 20260830231509 | 76 | 338 | 2.0 | 7.0 | 0.00 | 0.00 | 0.00 | 40 | 1016.1 |
| 20260830231009 | 76 | 39 | 4.0 | 7.0 | 0.00 | 0.00 | 0.00 | 40 | 1016.2 |
| 20260830230009 | 75 | 165 | 2.0 | 8.0 | 0.00 | 0.00 | 0.00 | 41 | 1016.2 |
| 20260830224939 | 76 | 80 | 2.0 | 8.0 | 0.00 | 0.00 | 0.00 | 39 | 1016.4 |
| 20260830224509 | 75 | 26 | 3.0 | 8.0 | 0.00 | 0.00 | 0.00 | 40 | 1016.4 |
| 20260830223939 | 76 | 63 | 7.0 | 8.0 | 0.00 | 0.00 | 0.00 | 39 | 1016.7 |
| 20260830223509 | 76 | 31 | 0.0 | 6.0 | 0.00 | 0.00 | 0.00 | 39 | 1016.7 |
| 20260830222439 | 75 | 120 | 4.0 | 7.0 | 0.00 | 0.00 | 0.00 | 39 | 1017.0 |
| 20260830222009 | 75 | 333 | 4.0 | 7.0 | 0.00 | 0.00 | 0.00 | 40 | 1017.0 |
| 20260830220939 | 76 | 122 | 3.0 | 7.0 | 0.00 | 0.00 | 0.00 | 38 | 1017.2 |
| 20260830220509 | 76 | 355 | 4.0 | 8.0 | 0.00 | 0.00 | 0.00 | 39 | 1017.2 |
| 20260830215439 | 75 | 355 | 3.0 | 8.0 | 0.00 | 0.00 | 0.00 | 41 | 1017.5 |
| 20260830215009 | 75 | 38 | 1.0 | 6.0 | 0.00 | 0.00 | 0.00 | 39 | 1017.5 |
| 20260830213009 | 74 | 28 | 5.0 | 8.0 | 0.00 | 0.00 | 0.00 | 41 | 1017.7 |
| 20260830211943 | 74 | 26 | 0.0 | 9.0 | 0.00 | 0.00 | 0.00 | 41 | 1017.9 |
| 20260830211442 | 74 | 333 | 1.0 | 8.0 | 0.00 | 0.00 | 0.00 | 41 | 1017.9 |
| 20260830211012 | 73 | 43 | 3.0 | 8.0 | 0.00 | 0.00 | 0.00 | 42 | 1018.1 |
| 20260830210513 | 73 | 13 | 4.0 | 7.0 | 0.00 | 0.00 | 0.00 | 41 | 1018.1 |
| 20260830205942 | 73 | 217 | 2.0 | 7.0 | 0.00 | 0.00 | 0.00 | 42 | 1018.1 |
| 20260830205512 | 72 | 191 | 1.0 | 8.0 | 0.00 | 0.00 | 0.00 | 44 | 1018.2 |
| 20260830204942 | 72 | 84 | 5.0 | 8.0 | 0.00 | 0.00 | 0.00 | 44 | 1018.2 |
| 20260830204512 | 72 | 5 | 4.0 | 7.0 | 0.00 | 0.00 | 0.00 | 43 | 1018.2 |
| 20260830204012 | 72 | 355 | 2.0 | 7.0 | 0.00 | 0.00 | 0.00 | 43 | 1018.3 |
| 20260830202942 | 72 | 209 | 1.0 | 6.0 | 0.00 | 0.00 | 0.00 | 43 | 1018.3 |
| 20260830202442 | 73 | 153 | 2.0 | 6.0 | 0.00 | 0.00 | 0.00 | 41 | 1018.7 |
| 20260830201442 | 72 | 50 | 1.0 | 7.0 | 0.00 | 0.00 | 0.00 | 44 | 1018.7 |
| 20260830200512 | 71 | 10 | 4.0 | 9.0 | 0.00 | 0.00 | 0.00 | 45 | 1018.8 |
| 20260830200012 | 71 | 75 | 3.0 | 8.0 | 0.00 | 0.00 | 0.00 | 45 | 1018.8 |
| 20260830195512 | 71 | 76 | 4.0 | 7.0 | 0.00 | 0.00 | 0.00 | 44 | 1018.9 |
| 20260830194942 | 71 | 42 | 2.0 | 6.0 | 0.00 | 0.00 | 0.00 | 45 | 1018.9 |
| 20260830194442 | 71 | 253 | 1.0 | 7.0 | 0.00 | 0.00 | 0.00 | 45 | 1018.9 |
| 20260830194012 | 70 | 140 | 1.0 | 7.0 | 0.00 | 0.00 | 0.00 | 45 | 1019.2 |
| 20260830192942 | 71 | 88 | 1.0 | 7.0 | 0.00 | 0.00 | 0.00 | 46 | 1019.2 |
| 20260830192442 | 70 | 340 | 2.0 | 8.0 | 0.00 | 0.00 | 0.00 | 47 | 1019.4 |
| 20260830192012 | 70 | 64 | 3.0 | 8.0 | 0.00 | 0.00 | 0.00 | 47 | 1019.4 |
| 20260830191442 | 69 | 76 | 1.0 | 5.0 | 0.00 | 0.00 | 0.00 | 49 | 1019.4 |
| 20260830190942 | 68 | 18 | 3.0 | 8.0 | 0.00 | 0.00 | 0.00 | 51 | 1019.5 |
| 20260830190442 | 68 | 61 | 2.0 | 8.0 | 0.00 | 0.00 | 0.00 | 50 | 1019.5 |
| 20260830185942 | 68 | 53 | 4.0 | 6.0 | 0.00 | 0.00 | 0.00 | 50 | 1019.5 |
| 20260830185442 | 69 | 26 | 3.0 | 7.0 | 0.00 | 0.00 | 0.00 | 50 | 1019.8 |
| 20260830184942 | 69 | 99 | 3.0 | 7.0 | 0.00 | 0.00 | 0.00 | 51 | 1019.8 |
| 20260830184442 | 69 | 40 | 6.0 | 6.0 | 0.00 | 0.00 | 0.00 | 50 | 1019.8 |
| 20260830183942 | 69 | 342 | 1.0 | 5.0 | 0.00 | 0.00 | 0.00 | 51 | 1019.8 |
| 20260830183442 | 68 | 165 | 1.0 | 5.0 | 0.00 | 0.00 | 0.00 | 52 | 1019.8 |
| 20260830182942 | 68 | 84 | 3.0 | 6.0 | 0.00 | 0.00 | 0.00 | 53 | 1019.8 |
| 20260830182442 | 68 | 126 | 3.0 | 7.0 | 0.00 | 0.00 | 0.00 | 53 | 1019.9 |
| 20260830180942 | 67 | 61 | 3.0 | 7.0 | 0.00 | 0.00 | 0.00 | 52 | 1020.0 |
| 20260830180442 | 67 | 86 | 0.0 | 7.0 | 0.00 | 0.00 | 0.00 | 52 | 1020.0 |
| 20260830175942 | 67 | 107 | 1.0 | 7.0 | 0.00 | 0.00 | 0.00 | 55 | 1020.0 |
| 20260830175442 | 66 | 58 | 2.0 | 7.0 | 0.00 | 0.00 | 0.00 | 55 | 1020.0 |
| 20260830175012 | 66 | 76 | 3.0 | 6.0 | 0.00 | 0.00 | 0.00 | 56 | 1020.0 |
| 20260830174442 | 66 | 64 | 3.0 | 9.0 | 0.00 | 0.00 | 0.00 | 57 | 1020.0 |
| 20260830173942 | 66 | 5 | 6.0 | 9.0 | 0.00 | 0.00 | 0.00 | 58 | 1020.2 |
| 20260830173442 | 66 | 84 | 2.0 | 9.0 | 0.00 | 0.00 | 0.00 | 57 | 1020.2 |
| 20260830172442 | 65 | 94 | 7.0 | 7.0 | 0.00 | 0.00 | 0.00 | 62 | 1020.2 |
| 20260830171942 | 65 | 34 | 3.0 | 7.0 | 0.00 | 0.00 | 0.00 | 62 | 1020.2 |
| 20260830170942 | 65 | 73 | 4.0 | 8.0 | 0.00 | 0.00 | 0.00 | 62 | 1020.2 |
| 20260830170442 | 65 | 84 | 3.0 | 4.0 | 0.00 | 0.00 | 0.00 | 63 | 1020.2 |
| 20260830165942 | 65 | 283 | 3.0 | 4.0 | 0.00 | 0.00 | 0.00 | 63 | 1020.2 |
| 20260830165442 | 64 | 34 | 0.0 | 4.0 | 0.00 | 0.00 | 0.00 | 65 | 1020.3 |
| 20260830165012 | 64 | 61 | 1.0 | 7.0 | 0.00 | 0.00 | 0.00 | 65 | 1020.3 |
| 20260830164442 | 64 | 44 | 4.0 | 7.0 | 0.00 | 0.00 | 0.00 | 63 | 1020.3 |
| 20260830163942 | 64 | 76 | 1.0 | 4.0 | 0.00 | 0.00 | 0.00 | 64 | 1020.4 |
| 20260830163442 | 63 | 222 | 1.0 | 2.0 | 0.00 | 0.00 | 0.00 | 65 | 1020.4 |
| 20260830162942 | 63 | 38 | 0.0 | 0.0 | 0.00 | 0.00 | 0.00 | 67 | 1020.4 |
| 20260830162442 | 62 | 81 | 0.0 | 0.0 | 0.00 | 0.00 | 0.00 | 67 | 1020.4 |
| 20260830161442 | 61 | 102 | 0.0 | 0.0 | 0.00 | 0.00 | 0.00 | 70 | 1020.4 |
| 20260830161012 | 60 | 109 | 0.0 | 0.0 | 0.00 | 0.00 | 0.00 | 71 | 1020.4 |
| 20260830155512 | 58 | 147 | 0.0 | 0.0 | 0.00 | 0.00 | 0.00 | 77 | 1020.4 |
| 20260830095450 | 49 | 128 | 0.0 | 0.0 | 0.00 | 0.00 | 0.00 | 85 | 1019.9 |
| 20260830094950 | 49 | 128 | 0.0 | 0.0 | 0.00 | 0.00 | 0.00 | 85 | 1019.9 |
| 20260830094450 | 49 | 128 | 0.0 | 0.0 | 0.00 | 0.00 | 0.00 | 85 | 1019.9 |
| 20260830093950 | 49 | 128 | 0.0 | 0.0 | 0.00 | 0.00 | 0.00 | 84 | 1019.8 |
| 20260830092950 | 50 | 128 | 0.0 | 0.0 | 0.00 | 0.00 | 0.00 | 83 | 1019.8 |
| 20260830092450 | 50 | 128 | 0.0 | 0.0 | 0.00 | 0.00 | 0.00 | 83 | 1019.8 |
| 20260830091950 | 50 | 128 | 0.0 | 0.0 | 0.00 | 0.00 | 0.00 | 82 | 1019.8 |
| 20260830091450 | 50 | 128 | 0.0 | 0.0 | 0.00 | 0.00 | 0.00 | 82 | 1019.8 |
| 20260830090950 | 50 | 128 | 0.0 | 0.0 | 0.00 | 0.00 | 0.00 | 82 | 1019.8 |
| 20260830090450 | 50 | 128 | 0.0 | 0.0 | 0.00 | 0.00 | 0.00 | 82 | 1019.8 |
| 20260830085950 | 51 | 128 | 0.0 | 0.0 | 0.00 | 0.00 | 0.00 | 81 | 1019.8 |
| 20260830085450 | 51 | 128 | 0.0 | 0.0 | 0.00 | 0.00 | 0.00 | 81 | 1019.8 |
| 20260830084950 | 51 | 128 | 0.0 | 0.0 | 0.00 | 0.00 | 0.00 | 81 | 1019.8 |
| 20260830084450 | 51 | 128 | 0.0 | 0.0 | 0.00 | 0.00 | 0.00 | 80 | 1019.8 |
| 20260830083950 | 51 | 128 | 0.0 | 0.0 | 0.00 | 0.00 | 0.00 | 80 | 1019.8 |
| 20260830083451 | 52 | 128 | 0.0 | 0.0 | 0.00 | 0.00 | 0.00 | 79 | 1019.8 |
| 20260830082450 | 52 | 128 | 0.0 | 0.0 | 0.00 | 0.00 | 0.00 | 79 | 1019.8 |
| 20260830081950 | 53 | 128 | 0.0 | 0.0 | 0.00 | 0.00 | 0.00 | 79 | 1019.8 |
| 20260830081450 | 53 | 128 | 0.0 | 0.0 | 0.00 | 0.00 | 0.00 | 79 | 1019.8 |
| 20260830080950 | 53 | 128 | 0.0 | 0.0 | 0.00 | 0.00 | 0.00 | 78 | 1019.8 |
| 20260830080450 | 53 | 128 | 0.0 | 0.0 | 0.00 | 0.00 | 0.00 | 78 | 1019.8 |
| 20260830075450 | 54 | 127 | 0.0 | 0.0 | 0.00 | 0.00 | 0.00 | 77 | 1019.8 |
| 20260830074950 | 54 | 127 | 0.0 | 0.0 | 0.00 | 0.00 | 0.00 | 76 | 1019.8 |
| 20260830074450 | 55 | 127 | 0.0 | 0.0 | 0.00 | 0.00 | 0.00 | 76 | 1019.8 |
| 20260830073950 | 55 | 127 | 0.0 | 0.0 | 0.00 | 0.00 | 0.00 | 76 | 1019.7 |
| 20260830073450 | 55 | 127 | 0.0 | 2.0 | 0.00 | 0.00 | 0.00 | 75 | 1019.7 |
| 20260830072950 | 55 | 127 | 0.0 | 2.0 | 0.00 | 0.00 | 0.00 | 75 | 1019.7 |
| 20260830072450 | 56 | 127 | 2.0 | 2.0 | 0.00 | 0.00 | 0.00 | 75 | 1019.6 |
| 20260830071950 | 56 | 265 | 0.0 | 0.0 | 0.00 | 0.00 | 0.00 | 75 | 1019.6 |
| 20260830071450 | 56 | 265 | 0.0 | 0.0 | 0.00 | 0.00 | 0.00 | 75 | 1019.6 |
| 20260830070950 | 56 | 265 | 0.0 | 0.0 | 0.00 | 0.00 | 0.00 | 74 | 1019.6 |
| 20260830065950 | 57 | 265 | 0.0 | 0.0 | 0.00 | 0.00 | 0.00 | 74 | 1019.6 |
| 20260830065450 | 57 | 265 | 0.0 | 0.0 | 0.00 | 0.00 | 0.00 | 74 | 1019.5 |
| 20260830064450 | 57 | 265 | 0.0 | 0.0 | 0.00 | 0.00 | 0.00 | 73 | 1019.5 |
| 20260830063950 | 57 | 265 | 0.0 | 0.0 | 0.00 | 0.00 | 0.00 | 73 | 1019.5 |
| 20260830063450 | 57 | 265 | 0.0 | 0.0 | 0.00 | 0.00 | 0.00 | 72 | 1019.5 |
| 20260830062950 | 57 | 265 | 0.0 | 0.0 | 0.00 | 0.00 | 0.00 | 72 | 1019.5 |
| 20260830062450 | 57 | 259 | 0.0 | 0.0 | 0.00 | 0.00 | 0.00 | 72 | 1019.4 |
| 20260830061950 | 57 | 259 | 0.0 | 2.0 | 0.00 | 0.00 | 0.00 | 72 | 1019.4 |
| 20260830061450 | 58 | 259 | 0.0 | 2.0 | 0.00 | 0.00 | 0.00 | 72 | 1019.4 |
| 20260830060950 | 58 | 218 | 0.0 | 1.0 | 0.00 | 0.00 | 0.00 | 71 | 1019.4 |
| 20260830060450 | 58 | 218 | 0.0 | 0.0 | 0.00 | 0.00 | 0.00 | 71 | 1019.4 |
| 20260830055950 | 58 | 218 | 0.0 | 0.0 | 0.00 | 0.00 | 0.00 | 70 | 1019.4 |
| 20260830055450 | 58 | 218 | 0.0 | 1.0 | 0.00 | 0.00 | 0.00 | 70 | 1019.4 |
| 20260830054950 | 59 | 217 | 0.0 | 2.0 | 0.00 | 0.00 | 0.00 | 70 | 1019.4 |
| 20260830053450 | 58 | 231 | 0.0 | 1.0 | 0.00 | 0.00 | 0.00 | 71 | 1019.3 |
| 20260830052950 | 59 | 231 | 0.0 | 1.0 | 0.00 | 0.00 | 0.00 | 71 | 1019.3 |
| 20260830051950 | 59 | 232 | 0.0 | 5.0 | 0.00 | 0.00 | 0.00 | 70 | 1019.4 |
| 20260830051450 | 59 | 297 | 0.0 | 0.0 | 0.00 | 0.00 | 0.00 | 70 | 1019.4 |
| 20260830050950 | 59 | 298 | 0.0 | 2.0 | 0.00 | 0.00 | 0.00 | 70 | 1019.5 |
| 20260830050450 | 59 | 300 | 0.0 | 2.0 | 0.00 | 0.00 | 0.00 | 69 | 1019.5 |
| 20260830045950 | 60 | 327 | 0.0 | 2.0 | 0.00 | 0.00 | 0.00 | 69 | 1019.5 |
| 20260830045450 | 60 | 330 | 0.0 | 2.0 | 0.00 | 0.00 | 0.00 | 69 | 1019.3 |
| 20260830044950 | 60 | 329 | 0.0 | 3.0 | 0.00 | 0.00 | 0.00 | 69 | 1019.3 |
| 20260830044450 | 60 | 255 | 0.0 | 3.0 | 0.00 | 0.00 | 0.00 | 69 | 1019.3 |
| 20260830043950 | 60 | 213 | 0.0 | 3.0 | 0.00 | 0.00 | 0.00 | 69 | 1019.3 |
| 20260830043450 | 60 | 201 | 0.0 | 4.0 | 0.00 | 0.00 | 0.00 | 69 | 1019.3 |
| 20260830042950 | 60 | 271 | 0.0 | 4.0 | 0.00 | 0.00 | 0.00 | 69 | 1019.3 |
| 20260830042450 | 60 | 286 | 0.0 | 3.0 | 0.00 | 0.00 | 0.00 | 69 | 1019.3 |
| 20260830041950 | 60 | 18 | 0.0 | 4.0 | 0.00 | 0.00 | 0.00 | 69 | 1019.3 |
| 20260830041450 | 60 | 284 | 3.0 | 4.0 | 0.00 | 0.00 | 0.00 | 69 | 1019.3 |
| 20260830040950 | 60 | 280 | 2.0 | 3.0 | 0.00 | 0.00 | 0.00 | 69 | 1019.1 |
| 20260830040450 | 60 | 175 | 0.0 | 0.0 | 0.00 | 0.00 | 0.00 | 69 | 1019.1 |
| 20260830035950 | 61 | 157 | 0.0 | 1.0 | 0.00 | 0.00 | 0.00 | 69 | 1019.1 |
| 20260830034450 | 61 | 86 | 0.0 | 5.0 | 0.00 | 0.00 | 0.00 | 68 | 1019.0 |
| 20260830033950 | 61 | 316 | 0.0 | 3.0 | 0.00 | 0.00 | 0.00 | 67 | 1018.8 |
| 20260830033450 | 62 | 260 | 0.0 | 8.0 | 0.00 | 0.00 | 0.00 | 67 | 1018.8 |
| 20260830032949 | 62 | 277 | 1.0 | 8.0 | 0.00 | 0.00 | 0.00 | 67 | 1018.8 |
| 20260830032449 | 62 | 222 | 0.0 | 3.0 | 0.00 | 0.00 | 0.00 | 66 | 1018.7 |
| 20260830031950 | 62 | 219 | 1.0 | 3.0 | 0.00 | 0.00 | 0.00 | 65 | 1018.7 |
| 20260830031449 | 62 | 325 | 0.0 | 2.0 | 0.00 | 0.00 | 0.00 | 65 | 1018.7 |
| 20260830030950 | 63 | 201 | 0.0 | 3.0 | 0.00 | 0.00 | 0.00 | 64 | 1018.6 |
| 20260830025949 | 63 | 221 | 1.0 | 6.0 | 0.00 | 0.00 | 0.00 | 62 | 1018.6 |
| 20260830025449 | 64 | 327 | 3.0 | 3.0 | 0.00 | 0.00 | 0.00 | 61 | 1018.6 |
| 20260830024949 | 64 | 207 | 1.0 | 3.0 | 0.00 | 0.00 | 0.00 | 61 | 1018.6 |
| 20260830023949 | 64 | 325 | 0.0 | 4.0 | 0.00 | 0.00 | 0.00 | 59 | 1018.5 |
| 20260830022950 | 65 | 65 | 2.0 | 4.0 | 0.00 | 0.00 | 0.00 | 58 | 1018.5 |
| 20260830022449 | 65 | 219 | 2.0 | 4.0 | 0.00 | 0.00 | 0.00 | 57 | 1018.4 |
| 20260830021950 | 66 | 153 | 3.0 | 4.0 | 0.00 | 0.00 | 0.00 | 56 | 1018.4 |
| 20260830020950 | 66 | 245 | 1.0 | 4.0 | 0.00 | 0.00 | 0.00 | 55 | 1018.4 |
| 20260830020449 | 66 | 149 | 2.0 | 4.0 | 0.00 | 0.00 | 0.00 | 54 | 1018.4 |
| 20260830015950 | 67 | 156 | 1.0 | 3.0 | 0.00 | 0.00 | 0.00 | 54 | 1018.4 |
| 20260830015450 | 67 | 219 | 2.0 | 3.0 | 0.00 | 0.00 | 0.00 | 53 | 1018.3 |
| 20260830014950 | 67 | 245 | 2.0 | 3.0 | 0.00 | 0.00 | 0.00 | 53 | 1018.3 |
| 20260830014449 | 67 | 360 | 3.0 | 5.0 | 0.00 | 0.00 | 0.00 | 52 | 1018.3 |
| 20260830013950 | 68 | 216 | 2.0 | 5.0 | 0.00 | 0.00 | 0.00 | 52 | 1018.3 |
| 20260830013449 | 68 | 105 | 3.0 | 6.0 | 0.00 | 0.00 | 0.00 | 51 | 1018.3 |
| 20260830012950 | 68 | 340 | 2.0 | 6.0 | 0.00 | 0.00 | 0.00 | 50 | 1018.3 |
| 20260830012449 | 68 | 266 | 0.0 | 5.0 | 0.00 | 0.00 | 0.00 | 50 | 1018.3 |
| 20260830011449 | 69 | 86 | 1.0 | 4.0 | 0.00 | 0.00 | 0.00 | 48 | 1018.3 |
| 20260830010950 | 69 | 360 | 1.0 | 4.0 | 0.00 | 0.00 | 0.00 | 48 | 1018.2 |
| 20260830010449 | 69 | 275 | 0.0 | 4.0 | 0.00 | 0.00 | 0.00 | 48 | 1018.2 |